| time (UTC) | temp F | wind direction | speed knots | gust knots | rain 1hr in | rain 24hr in | rain mn in | humidity % | barometer mb |
| 20260510151741 | 62 | 132 | 5.2 | 12.2 | 0.00 | 0.00 | 0.00 | 30 | 1028.7 |
| 20260510151234 | 62 | 138 | 5.2 | 11.3 | 0.00 | 0.00 | 0.00 | 31 | 1028.6 |
| 20260510150952 | 62 | 184 | 5.2 | 11.3 | 0.00 | 0.00 | 0.00 | 31 | 1028.6 |
| 20260510150222 | 61 | 169 | 6.1 | 12.2 | 0.00 | 0.00 | 0.00 | 32 | 1028.4 |
| 20260510145716 | 60 | 155 | 6.1 | 13.0 | 0.00 | 0.00 | 0.00 | 33 | 1028.4 |
| 20260510145211 | 60 | 168 | 5.2 | 13.0 | 0.00 | 0.00 | 0.00 | 34 | 1028.4 |
| 20260510144707 | 59 | 157 | 4.3 | 12.2 | 0.00 | 0.00 | 0.00 | 34 | 1028.4 |
| 20260510144207 | 58 | 150 | 3.5 | 9.6 | 0.00 | 0.00 | 0.00 | 35 | 1028.4 |
| 20260510143708 | 58 | 147 | 3.5 | 7.8 | 0.00 | 0.00 | 0.00 | 37 | 1028.4 |
| 20260510143428 | 57 | 131 | 3.5 | 8.7 | 0.00 | 0.00 | 0.00 | 38 | 1028.4 |
| 20260510142924 | 56 | 108 | 4.3 | 8.7 | 0.00 | 0.00 | 0.00 | 38 | 1028.3 |
| 20260510142428 | 56 | 132 | 4.3 | 8.7 | 0.00 | 0.00 | 0.00 | 39 | 1028.3 |
| 20260510141707 | 55 | 173 | 3.5 | 8.7 | 0.00 | 0.00 | 0.00 | 40 | 1028.3 |
| 20260510141207 | 54 | 103 | 3.5 | 8.7 | 0.00 | 0.00 | 0.00 | 40 | 1028.2 |
| 20260510140707 | 54 | 134 | 4.3 | 8.7 | 0.00 | 0.00 | 0.00 | 41 | 1028.2 |
| 20260510140207 | 54 | 109 | 3.5 | 8.7 | 0.00 | 0.00 | 0.00 | 42 | 1028.1 |
| 20260510135707 | 53 | 0 | 2.6 | 7.8 | 0.00 | 0.00 | 0.00 | 41 | 1028.1 |
| 20260510135207 | 53 | 123 | 2.6 | 7.8 | 0.00 | 0.00 | 0.00 | 42 | 1027.9 |
| 20260510134926 | 53 | 150 | 3.5 | 8.7 | 0.00 | 0.00 | 0.00 | 41 | 1027.9 |
| 20260510134516 | 53 | 109 | 3.5 | 10.4 | 0.00 | 0.00 | 0.00 | 41 | 1027.9 |
| 20260510134209 | 53 | 98 | 3.5 | 8.7 | 0.00 | 0.00 | 0.00 | 41 | 1027.9 |
| 20260510133919 | 53 | 140 | 4.3 | 10.4 | 0.00 | 0.00 | 0.00 | 41 | 1027.8 |
| 20260510132925 | 53 | 96 | 4.3 | 9.6 | 0.00 | 0.00 | 0.00 | 40 | 1027.9 |
| 20260510132201 | 54 | 109 | 4.3 | 9.6 | 0.00 | 0.00 | 0.00 | 40 | 1027.8 |
| 20260510131654 | 54 | 100 | 5.2 | 11.3 | 0.00 | 0.00 | 0.00 | 40 | 1027.8 |
| 20260510131149 | 54 | 92 | 5.2 | 11.3 | 0.00 | 0.00 | 0.00 | 40 | 1027.7 |
| 20260510130643 | 54 | 100 | 4.3 | 13.0 | 0.00 | 0.00 | 0.00 | 40 | 1027.6 |
| 20260510130136 | 54 | 105 | 3.5 | 13.0 | 0.00 | 0.00 | 0.00 | 39 | 1027.4 |
| 20260510125631 | 54 | 88 | 4.3 | 9.6 | 0.00 | 0.00 | 0.00 | 39 | 1027.4 |
| 20260510125128 | 54 | 79 | 5.2 | 10.4 | 0.00 | 0.00 | 0.00 | 39 | 1027.3 |
| 20260510124629 | 55 | 85 | 5.2 | 10.4 | 0.00 | 0.00 | 0.00 | 39 | 1027.2 |
| 20260510124400 | 55 | 82 | 4.3 | 8.7 | 0.00 | 0.00 | 0.00 | 38 | 1027.2 |
| 20260510123628 | 55 | 109 | 4.3 | 10.4 | 0.00 | 0.00 | 0.00 | 37 | 1027.2 |
| 20260510123129 | 55 | 127 | 5.2 | 11.3 | 0.00 | 0.00 | 0.00 | 37 | 1027.1 |
| 20260510122629 | 55 | 107 | 5.2 | 11.3 | 0.00 | 0.00 | 0.00 | 37 | 1027.2 |
| 20260510122128 | 55 | 148 | 4.3 | 11.3 | 0.00 | 0.00 | 0.00 | 36 | 1027.1 |
| 20260510121629 | 56 | 124 | 3.5 | 7.8 | 0.00 | 0.00 | 0.00 | 36 | 1027.1 |
| 20260510121351 | 56 | 91 | 3.5 | 7.8 | 0.00 | 0.00 | 0.00 | 35 | 1026.9 |
| 20260510120629 | 56 | 74 | 3.5 | 7.8 | 0.00 | 0.00 | 0.00 | 35 | 1026.9 |
| 20260510120129 | 56 | 88 | 2.6 | 7.0 | 0.00 | 0.00 | 0.00 | 34 | 1026.9 |
| 20260510115628 | 56 | 142 | 2.6 | 7.8 | 0.00 | 0.00 | 0.00 | 34 | 1026.9 |
| 20260510115349 | 56 | 51 | 2.6 | 7.8 | 0.00 | 0.00 | 0.00 | 34 | 1026.8 |
| 20260510114629 | 56 | 17 | 2.6 | 7.8 | 0.00 | 0.00 | 0.00 | 33 | 1026.8 |
| 20260510114129 | 56 | 70 | 1.7 | 7.8 | 0.00 | 0.00 | 0.00 | 33 | 1026.8 |
| 20260510113630 | 57 | 310 | 2.6 | 7.0 | 0.00 | 0.00 | 0.00 | 33 | 1026.7 |
| 20260510113127 | 57 | 30 | 2.6 | 7.0 | 0.00 | 0.00 | 0.00 | 33 | 1026.8 |
| 20260510112626 | 57 | 90 | 3.5 | 11.3 | 0.00 | 0.00 | 0.00 | 33 | 1026.7 |
| 20260510112127 | 57 | 105 | 4.3 | 11.3 | 0.00 | 0.00 | 0.00 | 33 | 1026.7 |
| 20260510111626 | 57 | 42 | 3.5 | 9.6 | 0.00 | 0.00 | 0.00 | 33 | 1026.7 |
| 20260510111127 | 57 | 63 | 4.3 | 10.4 | 0.00 | 0.00 | 0.00 | 33 | 1026.7 |
| 20260510110844 | 57 | 109 | 6.1 | 13.0 | 0.00 | 0.00 | 0.00 | 33 | 1026.5 |
| 20260510110126 | 57 | 124 | 6.1 | 13.0 | 0.00 | 0.00 | 0.00 | 30 | 1026.5 |
| 20260510105626 | 57 | 139 | 5.2 | 13.0 | 0.00 | 0.00 | 0.00 | 30 | 1026.3 |
| 20260510105350 | 56 | 97 | 4.3 | 11.3 | 0.00 | 0.00 | 0.00 | 30 | 1026.4 |
| 20260510104844 | 56 | 152 | 2.6 | 11.3 | 0.00 | 0.00 | 0.00 | 29 | 1026.4 |
| 20260510104123 | 56 | 133 | 2.6 | 7.0 | 0.00 | 0.00 | 0.00 | 29 | 1026.4 |
| 20260510103850 | 56 | 101 | 2.6 | 7.0 | 0.00 | 0.00 | 0.00 | 30 | 1026.5 |
| 20260510103123 | 56 | 128 | 2.6 | 5.2 | 0.00 | 0.00 | 0.00 | 30 | 1026.3 |
| 20260510102622 | 56 | 98 | 2.6 | 5.2 | 0.00 | 0.00 | 0.00 | 30 | 1026.3 |
| 20260510102350 | 56 | 110 | 2.6 | 5.2 | 0.00 | 0.00 | 0.00 | 30 | 1026.2 |
| 20260510101623 | 56 | 93 | 2.6 | 3.5 | 0.00 | 0.00 | 0.00 | 30 | 1026.2 |
| 20260510101123 | 56 | 98 | 3.5 | 6.1 | 0.00 | 0.00 | 0.00 | 30 | 1026.0 |
| 20260510100624 | 56 | 90 | 2.6 | 6.1 | 0.00 | 0.00 | 0.00 | 30 | 1025.9 |
| 20260510100119 | 56 | 80 | 1.7 | 5.2 | 0.00 | 0.00 | 0.00 | 29 | 1026.0 |
| 20260510095619 | 56 | 71 | 0.9 | 1.7 | 0.00 | 0.00 | 0.00 | 29 | 1026.0 |
| 20260510095340 | 57 | 61 | 0.9 | 2.6 | 0.00 | 0.00 | 0.00 | 29 | 1026.0 |
| 20260510094618 | 57 | 61 | 0.0 | 2.6 | 0.00 | 0.00 | 0.00 | 29 | 1025.8 |
| 20260510094119 | 57 | 5 | 0.0 | 1.7 | 0.00 | 0.00 | 0.00 | 29 | 1025.8 |
| 20260510093617 | 57 | 199 | 0.0 | 2.6 | 0.00 | 0.00 | 0.00 | 29 | 1025.7 |
| 20260510093115 | 57 | 159 | 0.9 | 3.5 | 0.00 | 0.00 | 0.00 | 29 | 1025.5 |
| 20260510092614 | 57 | 140 | 1.7 | 5.2 | 0.00 | 0.00 | 0.00 | 29 | 1025.3 |
| 20260510092113 | 57 | 95 | 2.6 | 7.8 | 0.00 | 0.00 | 0.00 | 29 | 1025.2 |
| 20260510091612 | 57 | 92 | 3.5 | 7.8 | 0.00 | 0.00 | 0.00 | 29 | 1025.2 |
| 20260510091112 | 57 | 31 | 3.5 | 7.8 | 0.00 | 0.00 | 0.00 | 29 | 1024.9 |
| 20260510090614 | 56 | 40 | 4.3 | 7.8 | 0.00 | 0.00 | 0.00 | 29 | 1024.9 |
| 20260510090338 | 57 | 49 | 4.3 | 7.8 | 0.00 | 0.00 | 0.00 | 29 | 1024.9 |
| 20260510085611 | 57 | 24 | 5.2 | 8.7 | 0.00 | 0.00 | 0.00 | 29 | 1024.8 |
| 20260510085106 | 57 | 24 | 5.2 | 8.7 | 0.00 | 0.00 | 0.00 | 29 | 1024.9 |
| 20260510084600 | 57 | 13 | 5.2 | 8.7 | 0.00 | 0.00 | 0.00 | 29 | 1024.9 |
| 20260510084315 | 57 | 11 | 4.3 | 7.8 | 0.00 | 0.00 | 0.00 | 29 | 1024.9 |
| 20260510083547 | 57 | 9 | 3.5 | 6.1 | 0.00 | 0.00 | 0.00 | 29 | 1024.8 |
| 20260510083042 | 57 | 42 | 4.3 | 8.7 | 0.00 | 0.00 | 0.00 | 28 | 1024.8 |
| 20260510082535 | 57 | 26 | 4.3 | 8.7 | 0.00 | 0.00 | 0.00 | 28 | 1024.7 |
| 20260510082250 | 57 | 25 | 5.2 | 8.7 | 0.00 | 0.00 | 0.00 | 28 | 1024.8 |
| 20260510081523 | 57 | 22 | 5.2 | 11.3 | 0.00 | 0.00 | 0.00 | 28 | 1024.8 |
| 20260510081017 | 57 | 20 | 5.2 | 11.3 | 0.00 | 0.00 | 0.00 | 28 | 1024.7 |
| 20260510080730 | 57 | 13 | 6.1 | 10.4 | 0.00 | 0.00 | 0.00 | 28 | 1024.7 |
| 20260510080223 | 57 | 25 | 6.1 | 10.4 | 0.00 | 0.00 | 0.00 | 28 | 1024.8 |
| 20260510075459 | 57 | 21 | 6.1 | 10.4 | 0.00 | 0.00 | 0.00 | 28 | 1024.8 |
| 20260510074953 | 57 | 5 | 6.1 | 10.4 | 0.00 | 0.00 | 0.00 | 28 | 1024.8 |
| 20260510074447 | 58 | 0 | 6.1 | 10.4 | 0.00 | 0.00 | 0.00 | 28 | 1024.8 |
| 20260510073941 | 58 | 355 | 6.1 | 9.6 | 0.00 | 0.00 | 0.00 | 27 | 1024.7 |
| 20260510073435 | 58 | 13 | 4.3 | 8.7 | 0.00 | 0.00 | 0.00 | 27 | 1024.8 |
| 20260510072929 | 58 | 20 | 3.5 | 7.0 | 0.00 | 0.00 | 0.00 | 27 | 1024.8 |
| 20260510072424 | 58 | 39 | 3.5 | 7.0 | 0.00 | 0.00 | 0.00 | 26 | 1024.8 |
| 20260510071917 | 58 | 30 | 4.3 | 7.0 | 0.00 | 0.00 | 0.00 | 26 | 1024.8 |
| 20260510071416 | 59 | 27 | 4.3 | 9.6 | 0.00 | 0.00 | 0.00 | 26 | 1024.8 |
| 20260510070917 | 59 | 31 | 3.5 | 9.6 | 0.00 | 0.00 | 0.00 | 26 | 1024.8 |
| 20260510070414 | 59 | 22 | 3.5 | 5.2 | 0.00 | 0.00 | 0.00 | 26 | 1024.7 |
| 20260510070132 | 59 | 17 | 2.6 | 5.2 | 0.00 | 0.00 | 0.00 | 25 | 1024.7 |
| 20260510065416 | 60 | 28 | 3.5 | 7.8 | 0.00 | 0.00 | 0.00 | 25 | 1024.7 |
| 20260510064913 | 60 | 13 | 4.3 | 7.8 | 0.00 | 0.00 | 0.00 | 25 | 1024.7 |
| 20260510064412 | 60 | 14 | 5.2 | 9.6 | 0.00 | 0.00 | 0.00 | 25 | 1024.7 |
| 20260510063912 | 60 | 40 | 6.1 | 9.6 | 0.00 | 0.00 | 0.00 | 25 | 1024.7 |
| 20260510063635 | 60 | 340 | 6.1 | 9.6 | 0.00 | 0.00 | 0.00 | 25 | 1024.7 |
| 20260510063132 | 60 | 16 | 6.1 | 9.6 | 0.00 | 0.00 | 0.00 | 25 | 1024.7 |
| 20260510062412 | 60 | 15 | 6.1 | 10.4 | 0.00 | 0.00 | 0.00 | 24 | 1024.7 |
| 20260510061912 | 60 | 15 | 6.1 | 10.4 | 0.00 | 0.00 | 0.00 | 24 | 1024.5 |
| 20260510061412 | 60 | 28 | 6.1 | 11.3 | 0.00 | 0.00 | 0.00 | 24 | 1024.4 |
| 20260510060913 | 60 | 10 | 7.0 | 11.3 | 0.00 | 0.00 | 0.00 | 24 | 1024.4 |
| 20260510060411 | 60 | 45 | 6.1 | 11.3 | 0.00 | 0.00 | 0.00 | 24 | 1024.5 |
| 20260510055907 | 60 | 5 | 6.1 | 10.4 | 0.00 | 0.00 | 0.00 | 24 | 1024.4 |
| 20260510055407 | 61 | 22 | 6.1 | 10.4 | 0.00 | 0.00 | 0.00 | 24 | 1024.4 |
| 20260510054907 | 61 | 12 | 7.0 | 11.3 | 0.00 | 0.00 | 0.00 | 24 | 1024.4 |
| 20260510054407 | 61 | 9 | 6.1 | 11.3 | 0.00 | 0.00 | 0.00 | 23 | 1024.4 |
| 20260510053906 | 61 | 31 | 5.2 | 10.4 | 0.00 | 0.00 | 0.00 | 23 | 1024.4 |
| 20260510053406 | 62 | 22 | 4.3 | 10.4 | 0.00 | 0.00 | 0.00 | 23 | 1024.4 |
| 20260510052904 | 62 | 35 | 4.3 | 7.8 | 0.00 | 0.00 | 0.00 | 22 | 1024.4 |
| 20260510052405 | 62 | 38 | 4.3 | 7.8 | 0.00 | 0.00 | 0.00 | 22 | 1024.4 |
| 20260510051905 | 62 | 44 | 4.3 | 7.8 | 0.00 | 0.00 | 0.00 | 21 | 1024.4 |
| 20260510051404 | 63 | 17 | 4.3 | 7.8 | 0.00 | 0.00 | 0.00 | 21 | 1024.4 |
| 20260510050905 | 63 | 36 | 5.2 | 9.6 | 0.00 | 0.00 | 0.00 | 21 | 1024.4 |
| 20260510050404 | 63 | 5 | 6.1 | 9.6 | 0.00 | 0.00 | 0.00 | 21 | 1024.3 |
| 20260510045904 | 63 | 355 | 6.1 | 10.4 | 0.00 | 0.00 | 0.00 | 21 | 1024.3 |
| 20260510045405 | 63 | 347 | 7.8 | 13.0 | 0.00 | 0.00 | 0.00 | 21 | 1024.3 |
| 20260510044904 | 63 | 32 | 7.0 | 13.0 | 0.00 | 0.00 | 0.00 | 21 | 1024.3 |
| 20260510044405 | 63 | 24 | 6.1 | 10.4 | 0.00 | 0.00 | 0.00 | 21 | 1024.4 |
| 20260510043904 | 63 | 355 | 6.1 | 11.3 | 0.00 | 0.00 | 0.00 | 20 | 1024.4 |
| 20260510043404 | 63 | 355 | 6.1 | 11.3 | 0.00 | 0.00 | 0.00 | 21 | 1024.4 |
| 20260510042904 | 63 | 355 | 6.1 | 11.3 | 0.00 | 0.00 | 0.00 | 20 | 1024.4 |
| 20260510042404 | 63 | 322 | 7.8 | 12.2 | 0.00 | 0.00 | 0.00 | 20 | 1024.4 |
| 20260510041858 | 63 | 32 | 7.8 | 12.2 | 0.00 | 0.00 | 0.00 | 20 | 1024.4 |
| 20260510041352 | 63 | 350 | 7.0 | 11.3 | 0.00 | 0.00 | 0.00 | 20 | 1024.4 |
| 20260510041108 | 64 | 5 | 7.0 | 10.4 | 0.00 | 0.00 | 0.00 | 19 | 1024.3 |
| 20260510040340 | 64 | 5 | 7.8 | 11.3 | 0.00 | 0.00 | 0.00 | 19 | 1024.2 |
| 20260510035834 | 64 | 355 | 7.8 | 11.3 | 0.00 | 0.00 | 0.00 | 18 | 1024.2 |
| 20260510035328 | 64 | 19 | 7.0 | 10.4 | 0.00 | 0.00 | 0.00 | 18 | 1024.2 |
| 20260510034822 | 64 | 24 | 7.8 | 12.2 | 0.00 | 0.00 | 0.00 | 17 | 1024.2 |
| 20260510034536 | 65 | 355 | 7.0 | 12.2 | 0.00 | 0.00 | 0.00 | 16 | 1024.2 |
| 20260510033816 | 65 | 19 | 6.1 | 9.6 | 0.00 | 0.00 | 0.00 | 15 | 1024.2 |
| 20260510033805 | 65 | 5 | 5.2 | 8.7 | 0.00 | 0.00 | 0.00 | 15 | 1024.0 |
| 20260510032814 | 66 | 5 | 4.3 | 7.8 | 0.00 | 0.00 | 0.00 | 15 | 1023.9 |
| 20260510032314 | 66 | 5 | 5.2 | 8.7 | 0.00 | 0.00 | 0.00 | 15 | 1023.9 |
| 20260510031814 | 66 | 355 | 4.3 | 8.7 | 0.00 | 0.00 | 0.00 | 15 | 1023.8 |
| 20260510031537 | 67 | 319 | 3.5 | 10.4 | 0.00 | 0.00 | 0.00 | 14 | 1023.8 |
| 20260510030813 | 67 | 319 | 3.5 | 10.4 | 0.00 | 0.00 | 0.00 | 14 | 1023.7 |
| 20260510030311 | 67 | 336 | 3.5 | 7.0 | 0.00 | 0.00 | 0.00 | 14 | 1023.4 |
| 20260510025810 | 67 | 327 | 2.6 | 7.0 | 0.00 | 0.00 | 0.00 | 13 | 1023.4 |
| 20260510025541 | 68 | 5 | 2.6 | 7.0 | 0.00 | 0.00 | 0.00 | 13 | 1023.3 |
| 20260510024810 | 68 | 331 | 3.5 | 8.7 | 0.00 | 0.00 | 0.00 | 13 | 1023.2 |
| 20260510024312 | 68 | 340 | 4.3 | 8.7 | 0.00 | 0.00 | 0.00 | 13 | 1023.0 |
| 20260510023810 | 68 | 333 | 4.3 | 10.4 | 0.00 | 0.00 | 0.00 | 13 | 1023.0 |
| 20260510023310 | 69 | 287 | 3.5 | 10.4 | 0.00 | 0.00 | 0.00 | 13 | 1023.0 |
| 20260510022810 | 69 | 5 | 3.5 | 8.7 | 0.00 | 0.00 | 0.00 | 14 | 1022.9 |
| 20260510022530 | 69 | 298 | 4.3 | 10.4 | 0.00 | 0.00 | 0.00 | 13 | 1022.9 |
| 20260510021811 | 69 | 317 | 5.2 | 10.4 | 0.00 | 0.00 | 0.00 | 13 | 1022.8 |
| 20260510021306 | 69 | 9 | 6.1 | 15.6 | 0.00 | 0.00 | 0.00 | 13 | 1022.6 |
| 20260510020759 | 70 | 208 | 6.1 | 15.6 | 0.00 | 0.00 | 0.00 | 13 | 1022.6 |
| 20260510020254 | 70 | 290 | 5.2 | 13.0 | 0.00 | 0.00 | 0.00 | 13 | 1022.6 |
| 20260510015748 | 71 | 298 | 5.2 | 13.0 | 0.00 | 0.00 | 0.00 | 13 | 1022.6 |
| 20260510015242 | 71 | 269 | 6.1 | 13.0 | 0.00 | 0.00 | 0.00 | 12 | 1022.5 |
| 20260510014735 | 71 | 284 | 5.2 | 13.0 | 0.00 | 0.00 | 0.00 | 12 | 1022.4 |
| 20260510014230 | 72 | 307 | 5.2 | 12.2 | 0.00 | 0.00 | 0.00 | 12 | 1022.4 |
| 20260510013723 | 72 | 301 | 6.1 | 14.8 | 0.00 | 0.00 | 0.00 | 12 | 1022.4 |
| 20260510013217 | 72 | 289 | 8.7 | 19.1 | 0.00 | 0.00 | 0.00 | 11 | 1022.1 |
| 20260510012711 | 73 | 203 | 10.4 | 19.1 | 0.00 | 0.00 | 0.00 | 11 | 1022.1 |
| 20260510012424 | 73 | 273 | 7.8 | 19.1 | 0.00 | 0.00 | 0.00 | 12 | 1022.3 |
| 20260510011923 | 73 | 290 | 6.1 | 17.4 | 0.00 | 0.00 | 0.00 | 12 | 1022.3 |
| 20260510011153 | 73 | 335 | 8.7 | 17.4 | 0.00 | 0.00 | 0.00 | 12 | 1022.0 |
| 20260510010647 | 73 | 317 | 7.0 | 14.8 | 0.00 | 0.00 | 0.00 | 12 | 1022.1 |
| 20260510010141 | 73 | 295 | 7.0 | 14.8 | 0.00 | 0.00 | 0.00 | 12 | 1022.0 |
| 20260510005854 | 73 | 355 | 7.8 | 16.5 | 0.00 | 0.00 | 0.00 | 12 | 1022.0 |
| 20260510005129 | 73 | 288 | 8.7 | 17.4 | 0.00 | 0.00 | 0.00 | 12 | 1022.0 |
| 20260510004623 | 73 | 298 | 7.8 | 17.4 | 0.00 | 0.00 | 0.00 | 11 | 1022.0 |
| 20260510004118 | 73 | 301 | 7.8 | 15.6 | 0.00 | 0.00 | 0.00 | 12 | 1022.0 |
| 20260510003611 | 74 | 324 | 7.0 | 15.6 | 0.00 | 0.00 | 0.00 | 11 | 1022.0 |
| 20260510003105 | 74 | 266 | 7.8 | 16.5 | 0.00 | 0.00 | 0.00 | 11 | 1022.0 |
| 20260510002559 | 74 | 0 | 7.8 | 16.5 | 0.00 | 0.00 | 0.00 | 11 | 1021.9 |
| 20260510002053 | 74 | 313 | 8.7 | 19.1 | 0.00 | 0.00 | 0.00 | 12 | 1022.0 |
| 20260510001547 | 74 | 304 | 9.6 | 19.1 | 0.00 | 0.00 | 0.00 | 11 | 1021.9 |
| 20260510001302 | 74 | 350 | 7.8 | 17.4 | 0.00 | 0.00 | 0.00 | 11 | 1021.8 |
| 20260510000535 | 74 | 258 | 7.8 | 17.4 | 0.00 | 0.00 | 0.00 | 12 | 1021.8 |
| 20260510000030 | 74 | 319 | 8.7 | 15.6 | 0.00 | 0.00 | 0.00 | 11 | 1021.9 |
| 20260509235523 | 74 | 251 | 7.8 | 14.8 | 0.00 | 0.00 | 0.00 | 11 | 1021.8 |
| 20260509235017 | 75 | 247 | 6.1 | 14.8 | 0.00 | 0.00 | 0.00 | 11 | 1021.8 |
| 20260509234512 | 75 | 285 | 7.8 | 16.5 | 0.00 | 0.00 | 0.00 | 11 | 1021.8 |
| 20260509234006 | 76 | 331 | 9.6 | 19.1 | 0.00 | 0.00 | 0.00 | 11 | 1021.8 |
| 20260509233727 | 76 | 0 | 8.7 | 19.1 | 0.00 | 0.00 | 0.00 | 11 | 1021.6 |
| 20260509232953 | 77 | 287 | 7.0 | 15.6 | 0.00 | 0.00 | 0.00 | 10 | 1021.6 |
| 20260509232708 | 77 | 284 | 7.8 | 18.2 | 0.00 | 0.00 | 0.00 | 10 | 1021.8 |
| 20260509231941 | 78 | 325 | 9.6 | 18.2 | 0.00 | 0.00 | 0.00 | 10 | 1021.9 |
| 20260509231435 | 78 | 279 | 9.6 | 22.6 | 0.00 | 0.00 | 0.00 | 10 | 1021.8 |
| 20260509230930 | 77 | 238 | 10.4 | 22.6 | 0.00 | 0.00 | 0.00 | 11 | 1021.6 |
| 20260509230647 | 77 | 282 | 10.4 | 22.6 | 0.00 | 0.00 | 0.00 | 10 | 1021.6 |
| 20260509230150 | 77 | 244 | 9.6 | 18.2 | 0.00 | 0.00 | 0.00 | 10 | 1021.8 |
| 20260509225427 | 77 | 248 | 9.6 | 20.9 | 0.00 | 0.00 | 0.00 | 10 | 1021.8 |
| 20260509224926 | 77 | 250 | 9.6 | 20.9 | 0.00 | 0.00 | 0.00 | 10 | 1021.6 |
| 20260509224424 | 78 | 295 | 7.8 | 15.6 | 0.00 | 0.00 | 0.00 | 10 | 1021.8 |
| 20260509224142 | 78 | 321 | 7.8 | 15.6 | 0.00 | 0.00 | 0.00 | 10 | 1021.9 |
| 20260509223424 | 78 | 269 | 7.8 | 15.6 | 0.00 | 0.00 | 0.00 | 10 | 1021.9 |
| 20260509222923 | 77 | 238 | 7.8 | 14.8 | 0.00 | 0.00 | 0.00 | 10 | 1022.0 |
| 20260509222646 | 77 | 213 | 7.8 | 20.0 | 0.00 | 0.00 | 0.00 | 10 | 1022.0 |
| 20260509221924 | 77 | 236 | 9.6 | 20.0 | 0.00 | 0.00 | 0.00 | 11 | 1022.1 |
| 20260509221424 | 77 | 248 | 11.3 | 20.9 | 0.00 | 0.00 | 0.00 | 10 | 1022.0 |
| 20260509221413 | 78 | 264 | 10.4 | 20.9 | 0.00 | 0.00 | 0.00 | 10 | 1021.9 |
| 20260509220423 | 78 | 234 | 8.7 | 24.3 | 0.00 | 0.00 | 0.00 | 11 | 1022.0 |
| 20260509220126 | 77 | 143 | 7.8 | 20.9 | 0.00 | 0.00 | 0.00 | 12 | 1022.0 |
| 20260509220013 | 78 | 261 | 7.8 | 24.3 | 0.00 | 0.00 | 0.00 | 10 | 1021.9 |
| 20260509214920 | 76 | 260 | 7.8 | 20.9 | 0.00 | 0.00 | 0.00 | 12 | 1022.1 |
| 20260509214414 | 75 | 261 | 5.2 | 14.8 | 0.00 | 0.00 | 0.00 | 13 | 1022.3 |
| 20260509213907 | 74 | 278 | 5.2 | 13.0 | 0.00 | 0.00 | 0.00 | 14 | 1022.1 |
| 20260509213402 | 74 | 293 | 6.1 | 13.0 | 0.00 | 0.00 | 0.00 | 13 | 1022.5 |
| 20260509212858 | 74 | 317 | 7.0 | 14.8 | 0.00 | 0.00 | 0.00 | 14 | 1022.5 |
| 20260509212357 | 74 | 267 | 7.8 | 14.8 | 0.00 | 0.00 | 0.00 | 13 | 1022.6 |
| 20260509211858 | 74 | 325 | 7.8 | 16.5 | 0.00 | 0.00 | 0.00 | 13 | 1022.8 |
| 20260509211358 | 74 | 287 | 7.8 | 16.5 | 0.00 | 0.00 | 0.00 | 13 | 1022.9 |
| 20260509210858 | 74 | 296 | 7.0 | 14.8 | 0.00 | 0.00 | 0.00 | 14 | 1022.8 |
| 20260509210357 | 74 | 196 | 6.1 | 13.0 | 0.00 | 0.00 | 0.00 | 14 | 1022.9 |
| 20260509205858 | 74 | 316 | 6.1 | 11.3 | 0.00 | 0.00 | 0.00 | 14 | 1022.9 |
| 20260509205355 | 74 | 300 | 7.0 | 15.6 | 0.00 | 0.00 | 0.00 | 14 | 1022.9 |
| 20260509204856 | 74 | 336 | 6.1 | 19.1 | 0.00 | 0.00 | 0.00 | 14 | 1023.0 |
| 20260509204356 | 74 | 296 | 6.1 | 19.1 | 0.00 | 0.00 | 0.00 | 14 | 1023.0 |
| 20260509204120 | 74 | 299 | 5.2 | 15.6 | 0.00 | 0.00 | 0.00 | 15 | 1023.2 |
| 20260509203357 | 74 | 340 | 7.0 | 15.6 | 0.00 | 0.00 | 0.00 | 14 | 1023.2 |
| 20260509202855 | 74 | 302 | 7.8 | 19.1 | 0.00 | 0.00 | 0.00 | 14 | 1023.4 |
| 20260509202351 | 74 | 13 | 6.1 | 19.1 | 0.00 | 0.00 | 0.00 | 14 | 1023.4 |
| 20260509201852 | 74 | 327 | 4.3 | 9.6 | 0.00 | 0.00 | 0.00 | 14 | 1023.4 |
| 20260509201354 | 74 | 261 | 4.3 | 10.4 | 0.00 | 0.00 | 0.00 | 14 | 1023.4 |
| 20260509201113 | 74 | 295 | 5.2 | 12.2 | 0.00 | 0.00 | 0.00 | 14 | 1023.5 |
| 20260509200352 | 74 | 306 | 7.0 | 12.2 | 0.00 | 0.00 | 0.00 | 14 | 1023.5 |
| 20260509195852 | 74 | 255 | 7.8 | 17.4 | 0.00 | 0.00 | 0.00 | 14 | 1023.5 |
| 20260509195352 | 74 | 346 | 6.1 | 17.4 | 0.00 | 0.00 | 0.00 | 14 | 1023.7 |
| 20260509194852 | 73 | 256 | 5.2 | 15.6 | 0.00 | 0.00 | 0.00 | 14 | 1023.8 |
| 20260509194353 | 74 | 279 | 4.3 | 15.6 | 0.00 | 0.00 | 0.00 | 14 | 1023.9 |
| 20260509193851 | 74 | 263 | 1.7 | 11.3 | 0.00 | 0.00 | 0.00 | 15 | 1024.0 |
| 20260509193352 | 74 | 138 | 4.3 | 13.9 | 0.00 | 0.00 | 0.00 | 15 | 1023.9 |
| 20260509192851 | 74 | 295 | 7.0 | 14.8 | 0.00 | 0.00 | 0.00 | 15 | 1024.0 |
| 20260509192613 | 74 | 298 | 5.2 | 14.8 | 0.00 | 0.00 | 0.00 | 15 | 1024.0 |
| 20260509191852 | 74 | 304 | 4.3 | 10.4 | 0.00 | 0.00 | 0.00 | 16 | 1023.9 |
| 20260509191351 | 74 | 250 | 4.3 | 10.4 | 0.00 | 0.00 | 0.00 | 15 | 1024.0 |
| 20260509190852 | 75 | 296 | 3.5 | 10.4 | 0.00 | 0.00 | 0.00 | 15 | 1024.2 |
| 20260509190353 | 75 | 323 | 3.5 | 11.3 | 0.00 | 0.00 | 0.00 | 15 | 1024.0 |
| 20260509185851 | 75 | 15 | 2.6 | 11.3 | 0.00 | 0.00 | 0.00 | 15 | 1024.3 |
| 20260509185351 | 75 | 342 | 2.6 | 8.7 | 0.00 | 0.00 | 0.00 | 15 | 1024.3 |
| 20260509184852 | 75 | 35 | 5.2 | 11.3 | 0.00 | 0.00 | 0.00 | 15 | 1024.4 |
| 20260509184352 | 75 | 246 | 6.1 | 13.0 | 0.00 | 0.00 | 0.00 | 15 | 1024.5 |
| 20260509183852 | 76 | 262 | 7.0 | 19.1 | 0.00 | 0.00 | 0.00 | 14 | 1024.7 |
| 20260509183350 | 75 | 171 | 7.0 | 19.1 | 0.00 | 0.00 | 0.00 | 14 | 1024.4 |
| 20260509182848 | 75 | 9 | 7.8 | 20.0 | 0.00 | 0.00 | 0.00 | 15 | 1024.5 |
| 20260509182347 | 75 | 311 | 8.7 | 20.0 | 0.00 | 0.00 | 0.00 | 15 | 1024.7 |
| 20260509182113 | 75 | 348 | 6.1 | 16.5 | 0.00 | 0.00 | 0.00 | 14 | 1024.8 |
| 20260509181345 | 74 | 285 | 4.3 | 12.2 | 0.00 | 0.00 | 0.00 | 15 | 1024.7 |
| 20260509180843 | 74 | 317 | 6.1 | 15.6 | 0.00 | 0.00 | 0.00 | 15 | 1024.9 |
| 20260509180342 | 74 | 157 | 7.0 | 20.0 | 0.00 | 0.00 | 0.00 | 15 | 1025.0 |
| 20260509175841 | 74 | 292 | 7.8 | 20.0 | 0.00 | 0.00 | 0.00 | 15 | 1024.9 |
| 20260509175340 | 74 | 304 | 8.7 | 20.0 | 0.00 | 0.00 | 0.00 | 15 | 1025.0 |
| 20260509174840 | 73 | 336 | 7.8 | 20.0 | 0.00 | 0.00 | 0.00 | 15 | 1025.0 |
| 20260509174338 | 73 | 23 | 7.8 | 19.1 | 0.00 | 0.00 | 0.00 | 15 | 1025.2 |
| 20260509173838 | 72 | 351 | 8.7 | 19.1 | 0.00 | 0.00 | 0.00 | 15 | 1025.3 |
| 20260509173338 | 72 | 301 | 7.8 | 16.5 | 0.00 | 0.00 | 0.00 | 16 | 1025.2 |
| 20260509172837 | 72 | 291 | 8.7 | 17.4 | 0.00 | 0.00 | 0.00 | 16 | 1025.2 |
| 20260509172337 | 72 | 336 | 8.7 | 17.4 | 0.00 | 0.00 | 0.00 | 15 | 1025.3 |
| 20260509171835 | 72 | 31 | 7.8 | 15.6 | 0.00 | 0.00 | 0.00 | 16 | 1025.2 |
| 20260509171336 | 71 | 304 | 8.7 | 16.5 | 0.00 | 0.00 | 0.00 | 16 | 1025.2 |
| 20260509170835 | 71 | 288 | 8.7 | 17.4 | 0.00 | 0.00 | 0.00 | 16 | 1025.3 |
| 20260509170553 | 71 | 329 | 10.4 | 17.4 | 0.00 | 0.00 | 0.00 | 15 | 1025.3 |
| 20260509165835 | 71 | 9 | 9.6 | 20.0 | 0.00 | 0.00 | 0.00 | 15 | 1025.2 |
| 20260509165335 | 71 | 293 | 8.7 | 20.0 | 0.00 | 0.00 | 0.00 | 16 | 1025.3 |
| 20260509164835 | 70 | 223 | 7.0 | 15.6 | 0.00 | 0.00 | 0.00 | 16 | 1025.2 |
| 20260509164557 | 70 | 5 | 7.0 | 13.9 | 0.00 | 0.00 | 0.00 | 17 | 1025.2 |
| 20260509163836 | 69 | 334 | 7.0 | 14.8 | 0.00 | 0.00 | 0.00 | 18 | 1025.3 |
| 20260509163600 | 69 | 331 | 6.1 | 14.8 | 0.00 | 0.00 | 0.00 | 19 | 1025.3 |
| 20260509162835 | 69 | 285 | 6.1 | 12.2 | 0.00 | 0.00 | 0.00 | 20 | 1025.3 |
| 20260509162328 | 68 | 355 | 5.2 | 12.2 | 0.00 | 0.00 | 0.00 | 19 | 1025.2 |
| 20260509162045 | 68 | 327 | 5.2 | 10.4 | 0.00 | 0.00 | 0.00 | 19 | 1025.2 |
| 20260509161550 | 67 | 12 | 5.2 | 12.2 | 0.00 | 0.00 | 0.00 | 21 | 1025.2 |
| 20260509160809 | 67 | 320 | 4.3 | 12.2 | 0.00 | 0.00 | 0.00 | 22 | 1025.3 |
| 20260509160303 | 66 | 318 | 4.3 | 10.4 | 0.00 | 0.00 | 0.00 | 23 | 1025.3 |
| 20260509155757 | 66 | 10 | 5.2 | 10.4 | 0.00 | 0.00 | 0.00 | 23 | 1025.3 |
| 20260509155514 | 65 | 318 | 4.3 | 8.7 | 0.00 | 0.00 | 0.00 | 24 | 1025.4 |
| 20260509154745 | 65 | 306 | 2.6 | 8.7 | 0.00 | 0.00 | 0.00 | 24 | 1025.3 |
| 20260509154238 | 64 | 308 | 2.6 | 8.7 | 0.00 | 0.00 | 0.00 | 25 | 1025.4 |
| 20260509153950 | 63 | 281 | 3.5 | 7.8 | 0.00 | 0.00 | 0.00 | 25 | 1025.4 |
| 20260509153227 | 63 | 255 | 2.6 | 7.8 | 0.00 | 0.00 | 0.00 | 26 | 1025.4 |
| 20260509152721 | 62 | 259 | 2.6 | 7.0 | 0.00 | 0.00 | 0.00 | 27 | 1025.4 |